Home > Weather > Wuhan > Past weeks

Flag for China Weather for the Past 2 Weeks in Wuhan, Hubei, China

Now
54 °F

Thunderstorms. Fog.


Feels Like: 52 °F
Forecast: 41 / 55 °F
Wind: 6 mph from Northwest

Location: Wuhan Airport

Current Time: Feb 12, 2016 at 8:51:07 PM

Latest Report: Feb 12, 2016 at 8:00 PM


Visibility: 1 mi

Pressure: 29.74 "Hg

Humidity: 100%

Dew point: 54 °F

Location of WuhanLocation

Historic Weather in Wuhan — Graph

°F

Wuhan Temperature Yesterday

Maximum temperature yesterday: 66 °F (at 3:00 PM)
Minimum temperature yesterday: 54 °F (at 3:00 AM)
Average temperature yesterday: 60 °F

High & Low Weather Summary for the Past Weeks

 TemperatureHumidityPressure
High72 °F (Feb 9, 3:00 PM)100% (Jan 30, 5:00 AM)30.69 "Hg (Jan 30, 5:00 AM)
Low23 °F (Feb 2, 6:00 AM)20% (Feb 6, 4:00 PM)29.65 "Hg (Feb 12, 3:00 PM)
Average45 °F69%30.27 "Hg
* Reported Jan 28 7:00 PM — Feb 12 7:00 PM, Wuhan, Weather by CustomWeather, © 2016

Note: Actual official high and low records may vary slightly from our data, if they occured in-between our weather recording intervals... More about our weather records

Advertising

Wuhan Weather History for the Previous 24 Hours

 ConditionsComfort  
Time TempWeatherWind HumidityBarometerVisibility
7:00 PM
Fri, Feb 12
55 °FFog.6 mph94%29.68 "Hg1 mi
6:00 PM59 °FThunderstorms. Fog.1 mph94%29.68 "Hg1 mi
5:00 PM61 °FFog.10 mph88%29.65 "Hg1 mi
4:00 PM63 °FFog.10 mph88%29.65 "Hg1 mi
3:00 PM61 °FFog.8 mph88%29.65 "Hg1 mi
2:00 PM63 °FFog.8 mph88%29.68 "Hg1 mi
1:00 PM66 °FFog.10 mph83%29.71 "Hg1 mi
12:00 PM63 °FFog.13 mph88%29.74 "Hg1 mi
11:00 AM63 °FFog.13 mph88%29.77 "Hg1 mi
10:00 AM61 °FFog.10 mph94%29.80 "Hg1 mi
9:00 AM59 °FFog.8 mph100%29.80 "Hg1 mi
8:00 AM59 °FFog.8 mph94%29.80 "Hg1 mi
7:00 AM57 °FFog.8 mph100%29.80 "Hg1 mi
6:00 AM57 °FLight rain. Fog.10 mph94%29.80 "Hg1 mi
5:00 AM55 °FLight rain. Fog.6 mph100%29.80 "Hg2 mi
4:00 AM57 °FFog.8 mph88%29.80 "Hg2 mi
3:00 AM57 °FFog.6 mph88%29.83 "Hg2 mi
2:00 AM59 °FFog.10 mph82%29.83 "Hg2 mi
1:00 AM59 °FFog.6 mph82%29.86 "Hg2 mi
12:00 AM61 °FFog.10 mph83%29.86 "Hg3 mi
11:00 PM
Thu, Feb 11
61 °FFog.8 mph83%29.86 "Hg3 mi
10:00 PM63 °FFog.10 mph77%29.86 "Hg3 mi
9:00 PM63 °FFog.6 mph83%29.86 "Hg2 mi
8:00 PM63 °FFog.6 mph83%29.86 "Hg2 mi
Weather by CustomWeather, © 2016

See weather overviewHow to use our weather pages